Date String (YYYY-MM-DD hh:mm:ss) UTC,Instrument flags,Ambient pressure (hPa),Sample flow (lpm),Bypass flow (lpm),Sample temperature (°C),Ambient temperature (°C),ASC tube jacket temperature (°C),LED temperature (°C),Box temperature (°C),Sample RH (%),Span deviation,Mass concentration (μg/m³),Mass concentration (μg/m³),Mass concentration (μg/m³)
DateTimeUTC,F1_M11,P_M11,Q1_M11,Q2_M11,T1_M11,T2_M11,T3_M11,T4_M11,T5_M11,U1_M11,ZSPAN_M11,X0_M11,X2_M11,X1_M11
2022-10-08 05:00:00,,0836.7,5.01,0.00,26.3,24.8,00.0,35.1,28.2,23.9,-001.8,0012.86,0009.15,0008.68
2022-10-08 05:01:00,,0836.7,5.00,0.00,26.3,24.8,00.0,35.1,28.2,23.9,-001.8,0012.84,0009.18,0008.69
2022-10-08 05:02:00,,0836.7,4.99,0.00,26.3,24.8,00.0,35.1,28.2,23.9,-001.8,0012.76,0009.19,0008.69
2022-10-08 05:03:00,,0836.7,5.00,0.00,26.3,24.8,00.0,35.1,28.2,23.9,-001.8,0013.13,0009.16,0008.69
2022-10-08 05:04:00,,0836.7,5.01,0.00,26.3,24.8,00.0,35.1,28.2,23.9,-001.8,0013.17,0009.18,0008.69
2022-10-08 05:05:00,,0836.7,4.99,0.00,26.3,24.8,00.0,35.1,28.2,23.9,-001.7,0013.32,0009.22,0008.68
2022-10-08 05:06:00,,0836.7,4.99,0.00,26.3,24.8,00.0,35.1,28.2,23.9,-001.9,0014.09,0009.30,0008.73
2022-10-08 05:07:00,,0836.6,5.00,0.00,26.3,24.9,00.0,35.1,28.2,23.9,-001.8,0014.57,0009.26,0008.73
2022-10-08 05:08:00,,0836.6,5.01,0.00,26.3,24.9,00.0,35.1,28.2,23.9,-001.8,0014.98,0009.24,0008.75
2022-10-08 05:09:00,,0836.6,4.99,0.00,26.3,24.9,00.0,35.1,28.2,23.8,-001.8,0014.85,0009.20,0008.72
2022-10-08 05:10:00,,0836.7,4.99,0.00,26.3,24.8,00.0,35.1,28.2,23.8,-001.7,0015.04,0009.19,0008.69
2022-10-08 05:11:00,,0836.6,5.00,0.00,26.3,24.8,00.0,35.1,28.2,23.8,-001.5,0015.19,0009.22,0008.72
2022-10-08 05:12:00,,0836.6,5.01,0.00,26.3,24.8,00.0,35.1,28.2,23.8,-001.2,0015.23,0009.25,0008.75
2022-10-08 05:13:00,,0836.6,4.99,0.00,26.3,24.8,00.0,35.1,28.2,23.8,-001.2,0015.11,0009.29,0008.77
2022-10-08 05:14:00,,0836.6,5.00,0.00,26.3,24.8,00.0,35.1,28.2,23.8,-001.3,0014.60,0009.31,0008.78
2022-10-08 05:15:00,,0836.6,5.01,0.00,26.3,24.8,00.0,35.1,28.2,23.8,-001.3,0014.92,0009.29,0008.79
2022-10-08 05:16:00,,0836.6,5.00,0.00,26.3,24.8,00.0,35.1,28.2,23.8,-001.2,0015.48,0009.27,0008.82
2022-10-08 05:17:00,,0836.5,5.00,0.00,26.3,24.8,00.0,35.1,28.2,23.8,-000.9,0014.81,0009.23,0008.81
2022-10-08 05:18:00,,0836.5,5.01,0.00,26.3,24.8,00.0,35.1,28.2,23.8,-000.7,0014.69,0009.21,0008.79
2022-10-08 05:19:00,,0836.6,5.00,0.00,26.3,24.8,00.0,35.1,28.2,23.8,-000.7,0013.97,0009.21,0008.81
2022-10-08 05:20:00,,0836.6,5.00,0.00,26.3,24.8,00.0,35.1,28.2,23.8,-000.7,0014.13,0009.25,0008.85
2022-10-08 05:21:00,,0836.5,5.01,0.00,26.3,24.8,00.0,35.1,28.2,23.8,-000.8,0014.37,0009.30,0008.90
2022-10-08 05:22:00,,0836.5,4.99,0.00,26.3,24.8,00.0,35.1,28.2,23.8,-001.0,0014.29,0009.34,0008.93
2022-10-08 05:23:00,,0836.5,5.00,0.00,26.3,24.8,00.0,35.1,28.2,23.8,-001.3,0014.30,0009.32,0008.91
2022-10-08 05:24:00,,0836.5,5.00,0.00,26.3,24.8,00.0,35.1,28.2,23.8,-001.2,0014.27,0009.31,0008.91
2022-10-08 05:25:00,,0836.5,4.99,0.00,26.3,24.8,00.0,35.1,28.2,23.7,-001.0,0014.29,0009.32,0008.92
2022-10-08 05:26:00,,0836.5,5.00,0.00,26.3,24.8,00.0,35.1,28.2,23.7,-000.9,0014.11,0009.34,0008.92
2022-10-08 05:27:00,,0836.5,5.02,0.00,26.3,24.8,00.0,35.1,28.2,23.7,-000.8,0013.35,0009.35,0008.93
2022-10-08 05:28:00,,0836.5,5.00,0.00,26.3,24.8,00.0,35.1,28.2,23.7,-000.9,0013.60,0009.42,0008.97
2022-10-08 05:29:00,,0836.5,5.00,0.00,26.3,24.8,00.0,35.1,28.2,23.7,-001.0,0013.55,0009.51,0009.01
2022-10-08 05:30:00,,0836.5,5.00,0.00,26.3,24.8,00.0,35.1,28.2,23.7,-000.9,0013.61,0009.55,0009.01
2022-10-08 05:31:00,,0836.5,5.00,0.00,26.3,24.8,00.0,35.1,28.2,23.7,-001.0,0013.58,0009.55,0008.99
2022-10-08 05:32:00,,0836.5,5.00,0.00,26.3,24.8,00.0,35.0,28.2,23.7,-001.3,0013.30,0009.57,0008.99
2022-10-08 05:33:00,,0836.5,5.00,0.00,26.3,24.8,00.0,35.0,28.1,23.7,-001.2,0013.30,0009.58,0008.98
2022-10-08 05:34:00,,0836.5,5.02,0.00,26.3,24.7,00.0,35.0,28.2,23.7,-001.1,0013.41,0009.61,0009.02
2022-10-08 05:35:00,,0836.5,5.00,0.00,26.3,24.7,00.0,35.0,28.2,23.7,-001.3,0013.44,0009.63,0009.04
2022-10-08 05:36:00,,0836.5,4.99,0.00,26.3,24.8,00.0,35.0,28.2,23.7,-001.6,0013.52,0009.61,0009.03
2022-10-08 05:37:00,,0836.5,5.00,0.00,26.3,24.8,00.0,35.0,28.2,23.7,-001.6,0013.53,0009.61,0009.04
2022-10-08 05:38:00,,0836.5,5.02,0.00,26.3,24.7,00.0,35.0,28.2,23.7,-001.8,0013.53,0009.66,0009.09
2022-10-08 05:39:00,,0836.5,4.99,0.00,26.3,24.8,00.0,35.0,28.2,23.7,-001.8,0013.50,0009.64,0009.10
2022-10-08 05:40:00,,0836.5,5.01,0.00,26.2,24.7,00.0,35.0,28.1,23.7,-001.9,0013.56,0009.65,0009.13
2022-10-08 05:41:00,,0836.5,5.00,0.00,26.2,24.7,00.0,35.0,28.1,23.7,-002.1,0013.68,0009.73,0009.19
2022-10-08 05:42:00,,0836.5,5.00,0.00,26.2,24.7,00.0,35.0,28.1,23.7,-002.0,0013.85,0009.82,0009.26
2022-10-08 05:43:00,,0836.5,5.02,0.00,26.2,24.7,00.0,35.0,28.1,23.7,-001.9,0014.06,0009.87,0009.33
2022-10-08 05:44:00,,0836.5,4.99,0.00,26.2,24.7,00.0,35.0,28.1,23.7,-002.3,0014.62,0009.93,0009.40
2022-10-08 05:45:00,,0836.5,4.99,0.00,26.2,24.7,00.0,35.0,28.1,23.6,-002.3,0014.61,0009.97,0009.43
2022-10-08 05:46:00,,0836.5,4.99,0.00,26.2,24.7,00.0,35.0,28.1,23.6,-002.2,0014.74,0009.99,0009.44
2022-10-08 05:47:00,,0836.5,5.00,0.00,26.2,24.7,00.0,35.0,28.1,23.6,-002.0,0015.78,0010.00,0009.45
2022-10-08 05:48:00,,0836.5,5.00,0.00,26.2,24.7,00.0,35.0,28.1,23.5,-002.1,0015.96,0010.04,0009.48
2022-10-08 05:49:00,,0836.5,4.99,0.00,26.2,24.7,00.0,35.0,28.1,23.5,-002.0,0015.99,0010.03,0009.47
2022-10-08 05:50:00,,0836.4,5.01,0.00,26.2,24.7,00.0,35.0,28.1,23.5,-001.9,0015.83,0010.03,0009.45
2022-10-08 05:51:00,,0836.5,4.99,0.00,26.2,24.7,00.0,35.0,28.1,23.5,-001.7,0015.60,0010.00,0009.43
2022-10-08 05:52:00,,0836.5,5.00,0.00,26.2,24.7,00.0,35.0,28.1,23.7,-001.8,0015.53,0009.96,0009.42
2022-10-08 05:53:00,,0836.5,5.01,0.00,26.2,24.7,00.0,35.0,28.1,25.2,-001.8,0015.52,0009.95,0009.42
2022-10-08 05:54:00,,0836.5,5.00,0.00,26.2,24.7,00.0,35.0,28.1,25.8,-001.5,0015.67,0009.99,0009.42
2022-10-08 05:55:00,,0836.5,5.00,0.00,26.2,24.7,00.0,35.0,28.1,24.2,-001.3,0015.87,0010.05,0009.44
2022-10-08 05:56:00,,0836.5,5.00,0.00,26.2,24.7,00.0,35.0,28.1,23.9,-001.2,0016.36,0010.08,0009.45
2022-10-08 05:57:00,,0836.5,5.02,0.00,26.2,24.7,00.0,35.0,28.1,23.8,-001.3,0017.19,0010.15,0009.49
2022-10-08 05:58:00,,0836.5,4.99,0.00,26.2,24.7,00.0,35.0,28.1,23.8,-001.3,0016.31,0010.23,0009.57
2022-10-08 05:59:00,,0836.5,4.99,0.00,26.2,24.7,00.0,35.0,28.1,23.8,-001.2,0016.33,0010.25,0009.59
